CMB864 Details

Departure: Bahrain International Airport (OBBI)
Arrival: Ramstein Air Force Base (ETAR) at N/A
Route: RAMSI ITNAS UL602 TASMI L602 ALPET UM860 SRT G8 ULSAB UT334 INB L746 ODERO T86 MATEL WRN L744 ELRUR L602 KOMAN L852 DIRER REDBU KRH
Notes: USTRANSCOM CONTRACT FLIGHT


Current Weather Information
OBBI 230730Z 24005KT 200V270 9000 NSC 34/23 Q1011 NOSIG
ETAR 230726Z 07004KT 9000 BR OVC005 11/11 A3002 RMK AO2A SLP172 $